Time,TemperatureF,DewpointF,PressureIn,WindDirection,WindDirectionDegrees,WindSpeedMPH,WindSpeedGustMPH,Humidity,HourlyPrecipIn,Conditions,Clouds,dailyrainin,SoftwareType,DateUTC
2014-03-04 00:00:00,6.8,2.0,30.09,SSE,158,4.0,6.0,80,0.00,,---,0.00,VWS V14.01,2014-03-04 06:00:00,
2014-03-04 00:05:00,6.8,2.0,30.09,SSE,153,8.0,8.0,80,0.00,,---,0.00,VWS V14.01,2014-03-04 06:05:00,
2014-03-04 00:10:00,6.8,2.0,30.09,SSE,154,8.0,8.0,80,0.00,,---,0.00,VWS V14.01,2014-03-04 06:10:00,
2014-03-04 00:15:00,6.6,1.8,30.09,SSE,160,4.0,5.0,80,0.00,,---,0.00,VWS V14.01,2014-03-04 06:15:00,
2014-03-04 00:20:00,6.6,1.8,30.08,SSE,152,8.0,8.0,80,0.00,,---,0.00,VWS V14.01,2014-03-04 06:20:00,
2014-03-04 00:25:00,6.6,2.0,30.08,SSE,160,6.0,6.0,81,0.00,,---,0.00,VWS V14.01,2014-03-04 06:25:00,
2014-03-04 00:30:00,6.5,1.9,30.08,SSE,163,6.0,6.0,81,0.00,,---,0.00,VWS V14.01,2014-03-04 06:30:00,
2014-03-04 00:35:00,6.3,1.7,30.07,SSE,163,4.0,6.0,81,0.00,,---,0.00,VWS V14.01,2014-03-04 06:35:00,
2014-03-04 00:40:00,6.6,2.0,30.07,SSE,164,6.0,6.0,81,0.00,,---,0.00,VWS V14.01,2014-03-04 06:40:00,
2014-03-04 00:45:00,6.4,1.8,30.07,SSE,157,2.0,6.0,81,0.00,,---,0.00,VWS V14.01,2014-03-04 06:45:00,
2014-03-04 00:50:00,6.4,1.8,30.07,SSE,163,4.0,6.0,81,0.00,,---,0.00,VWS V14.01,2014-03-04 06:50:00,
2014-03-04 00:55:00,6.2,1.6,30.07,SSE,156,4.0,6.0,81,0.00,,---,0.00,VWS V14.01,2014-03-04 06:55:00,
2014-03-04 01:00:00,6.2,1.6,30.07,SSE,155,4.0,6.0,81,0.00,,---,0.00,VWS V14.01,2014-03-04 07:00:00,
2014-03-04 01:05:00,5.9,1.3,30.07,SSE,161,6.0,6.0,81,0.00,,---,0.00,VWS V14.01,2014-03-04 07:05:00,
2014-03-04 01:10:00,6.2,1.6,30.06,SSE,166,6.0,6.0,81,0.00,,---,0.00,VWS V14.01,2014-03-04 07:10:00,
2014-03-04 01:15:00,6.2,1.6,30.06,SSE,162,6.0,6.0,81,0.00,,---,0.00,VWS V14.01,2014-03-04 07:15:00,
2014-03-04 01:20:00,6.1,1.5,30.06,SSE,168,6.0,6.0,81,0.00,,---,0.00,VWS V14.01,2014-03-04 07:20:00,
2014-03-04 01:25:00,6.0,1.7,30.06,SSE,160,6.0,6.0,82,0.00,,---,0.00,VWS V14.01,2014-03-04 07:25:00,
2014-03-04 01:30:00,6.2,1.9,30.06,South,173,6.0,6.0,82,0.00,,---,0.00,VWS V14.01,2014-03-04 07:30:00,
2014-03-04 01:35:00,6.0,1.7,30.06,SSE,166,4.0,4.0,82,0.00,,---,0.00,VWS V14.01,2014-03-04 07:35:00,
2014-03-04 01:40:00,5.9,1.6,30.06,SSE,159,6.0,6.0,82,0.00,,---,0.00,VWS V14.01,2014-03-04 07:40:00,
2014-03-04 01:45:00,5.9,1.6,30.07,SSE,165,4.0,4.0,82,0.00,,---,0.00,VWS V14.01,2014-03-04 07:45:00,
2014-03-04 01:50:00,5.7,1.1,30.07,SSE,165,4.0,4.0,81,0.00,,---,0.00,VWS V14.01,2014-03-04 07:50:00,
2014-03-04 01:55:00,5.3,0.8,30.07,SSE,165,4.0,4.0,81,0.00,,---,0.00,VWS V14.01,2014-03-04 07:55:00,
2014-03-04 02:00:00,4.9,0.4,30.07,SSE,165,2.0,4.0,81,0.00,,---,0.00,VWS V14.01,2014-03-04 08:00:00,
2014-03-04 02:05:00,4.6,0.3,30.07,SSE,147,2.0,4.0,82,0.00,,---,0.00,VWS V14.01,2014-03-04 08:05:00,
2014-03-04 02:10:00,4.7,0.4,30.07,SE,146,4.0,4.0,82,0.00,,---,0.00,VWS V14.01,2014-03-04 08:10:00,
2014-03-04 02:15:00,4.9,0.9,30.07,SE,144,2.0,4.0,83,0.00,,---,0.00,VWS V14.01,2014-03-04 08:15:00,
2014-03-04 02:20:00,5.0,1.0,30.07,SE,144,2.0,4.0,83,0.00,,---,0.00,VWS V14.01,2014-03-04 08:20:00,
2014-03-04 02:25:00,4.9,0.6,30.07,SE,144,4.0,4.0,82,0.00,,---,0.00,VWS V14.01,2014-03-04 08:25:00,
2014-03-04 02:30:00,4.8,0.5,30.07,SE,144,2.0,4.0,82,0.00,,---,0.00,VWS V14.01,2014-03-04 08:30:00,
2014-03-04 02:35:00,4.6,0.6,30.07,SE,144,2.0,2.0,83,0.00,,---,0.00,VWS V14.01,2014-03-04 08:35:00,
2014-03-04 02:40:00,4.5,0.2,30.06,SE,144,6.0,6.0,82,0.00,,---,0.00,VWS V14.01,2014-03-04 08:40:00,
2014-03-04 02:45:00,4.1,-0.2,30.05,SE,144,4.0,4.0,82,0.00,,---,0.00,VWS V14.01,2014-03-04 08:45:00,
2014-03-04 02:50:00,3.7,-0.6,30.06,SE,144,0.0,3.0,82,0.00,,---,0.00,VWS V14.01,2014-03-04 08:50:00,
2014-03-04 02:55:00,3.8,-0.5,30.06,SE,144,2.0,3.0,82,0.00,,---,0.00,VWS V14.01,2014-03-04 08:55:00,
2014-03-04 03:00:00,4.0,0.0,30.06,SE,144,4.0,4.0,83,0.00,,---,0.00,VWS V14.01,2014-03-04 09:00:00,
2014-03-04 03:05:00,4.3,0.3,30.07,SE,144,0.0,2.0,83,0.00,,---,0.00,VWS V14.01,2014-03-04 09:05:00,
2014-03-04 03:10:00,4.2,0.2,30.06,SE,144,0.0,2.0,83,0.00,,---,0.00,VWS V14.01,2014-03-04 09:10:00,
2014-03-04 03:15:00,4.1,0.1,30.05,SE,144,0.0,2.0,83,0.00,,---,0.00,VWS V14.01,2014-03-04 09:15:00,
2014-03-04 03:20:00,4.1,0.1,30.05,SE,144,2.0,2.0,83,0.00,,---,0.00,VWS V14.01,2014-03-04 09:20:00,
2014-03-04 03:25:00,3.9,-0.1,30.05,SE,144,0.0,2.0,83,0.00,,---,0.00,VWS V14.01,2014-03-04 09:25:00,
2014-03-04 03:30:00,3.9,-0.1,30.05,SE,144,0.0,2.0,83,0.00,,---,0.00,VWS V14.01,2014-03-04 09:30:00,
2014-03-04 03:35:00,3.8,-0.2,30.05,SE,144,4.0,4.0,83,0.00,,---,0.00,VWS V14.01,2014-03-04 09:35:00,
2014-03-04 03:40:00,3.9,-0.1,30.05,SE,144,0.0,2.0,83,0.00,,---,0.00,VWS V14.01,2014-03-04 09:40:00,
2014-03-04 03:45:00,4.1,0.1,30.05,SE,144,2.0,2.0,83,0.00,,---,0.00,VWS V14.01,2014-03-04 09:45:00,
2014-03-04 03:50:00,4.0,0.0,30.05,SE,144,4.0,4.0,83,0.00,,---,0.00,VWS V14.01,2014-03-04 09:50:00,
2014-03-04 03:54:00,4.3,0.6,30.05,SE,144,2.0,2.0,84,0.00,,---,0.00,VWS V14.01,2014-03-04 09:54:00,
2014-03-04 03:59:00,4.4,0.6,30.05,SE,144,2.0,2.0,84,0.00,,---,0.00,VWS V14.01,2014-03-04 09:59:00,
2014-03-04 04:04:00,4.6,0.6,30.05,SE,144,2.0,3.0,83,0.00,,---,0.00,VWS V14.01,2014-03-04 10:04:00,
2014-03-04 04:09:00,4.2,0.2,30.05,SE,144,2.0,3.0,83,0.00,,---,0.00,VWS V14.01,2014-03-04 10:09:00,
2014-03-04 04:14:00,4.2,0.2,30.05,SE,144,0.0,3.0,83,0.00,,---,0.00,VWS V14.01,2014-03-04 10:14:00,
2014-03-04 04:19:00,3.9,-0.1,30.05,SE,144,0.0,3.0,83,0.00,,---,0.00,VWS V14.01,2014-03-04 10:19:00,
2014-03-04 04:24:00,3.9,-0.1,30.05,SE,144,2.0,3.0,83,0.00,,---,0.00,VWS V14.01,2014-03-04 10:24:00,
2014-03-04 04:29:00,3.6,-0.4,30.04,SE,144,6.0,6.0,83,0.00,,---,0.00,VWS V14.01,2014-03-04 10:29:00,
2014-03-04 04:34:00,3.6,-0.4,30.04,SE,144,2.0,3.0,83,0.00,,---,0.00,VWS V14.01,2014-03-04 10:34:00,
2014-03-04 04:39:00,3.3,-0.7,30.04,SE,144,0.0,3.0,83,0.00,,---,0.00,VWS V14.01,2014-03-04 10:39:00,
2014-03-04 04:44:00,3.3,-0.7,30.04,SE,144,0.0,3.0,83,0.00,,---,0.00,VWS V14.01,2014-03-04 10:44:00,
2014-03-04 04:49:00,3.3,-0.7,30.04,SE,144,0.0,3.0,83,0.00,,---,0.00,VWS V14.01,2014-03-04 10:49:00,
2014-03-04 04:54:00,3.3,-0.7,30.04,SE,144,0.0,3.0,83,0.00,,---,0.00,VWS V14.01,2014-03-04 10:54:00,
2014-03-04 04:59:00,3.4,-0.3,30.04,SE,144,0.0,3.0,84,0.00,,---,0.00,VWS V14.01,2014-03-04 10:59:00,
2014-03-04 05:04:00,3.3,-0.4,30.04,SE,144,0.0,1.0,84,0.00,,---,0.00,VWS V14.01,2014-03-04 11:04:00,
2014-03-04 05:09:00,3.4,-0.3,30.04,SE,144,0.0,1.0,84,0.00,,---,0.00,VWS V14.01,2014-03-04 11:09:00,
2014-03-04 05:14:00,3.5,-0.2,30.04,SE,144,0.0,1.0,84,0.00,,---,0.00,VWS V14.01,2014-03-04 11:14:00,
2014-03-04 05:19:00,3.5,-0.2,30.05,SE,144,0.0,1.0,84,0.00,,---,0.00,VWS V14.01,2014-03-04 11:19:00,
2014-03-04 05:24:00,3.7,0.0,30.05,SE,144,0.0,1.0,84,0.00,,---,0.00,VWS V14.01,2014-03-04 11:24:00,
2014-03-04 05:29:00,3.6,-0.1,30.05,SE,144,0.0,1.0,84,0.00,,---,0.00,VWS V14.01,2014-03-04 11:29:00,
2014-03-04 05:34:00,3.3,-0.4,30.04,SE,144,0.0,0.0,84,0.00,,---,0.00,VWS V14.01,2014-03-04 11:34:00,
2014-03-04 05:39:00,3.3,-0.4,30.04,SE,144,0.0,0.0,84,0.00,,---,0.00,VWS V14.01,2014-03-04 11:39:00,
2014-03-04 05:44:00,3.4,-0.3,30.04,SE,144,0.0,0.0,84,0.00,,---,0.00,VWS V14.01,2014-03-04 11:44:00,
2014-03-04 05:49:00,3.4,-0.3,30.04,SE,144,0.0,0.0,84,0.00,,---,0.00,VWS V14.01,2014-03-04 11:49:00,
2014-03-04 05:54:00,3.4,-0.3,30.04,SE,144,0.0,0.0,84,0.00,,---,0.00,VWS V14.01,2014-03-04 11:54:00,
2014-03-04 05:59:00,3.4,-0.3,30.04,SE,144,0.0,0.0,84,0.00,,---,0.00,VWS V14.01,2014-03-04 11:59:00,
2014-03-04 06:04:00,3.2,-0.5,30.04,SE,144,0.0,0.0,84,0.00,,---,0.00,VWS V14.01,2014-03-04 12:04:00,
2014-03-04 06:09:00,3.4,-0.3,30.05,SE,144,0.0,0.0,84,0.00,,---,0.00,VWS V14.01,2014-03-04 12:09:00,
2014-03-04 06:14:00,3.4,-0.3,30.04,SE,144,0.0,0.0,84,0.00,,---,0.00,VWS V14.01,2014-03-04 12:14:00,
2014-03-04 06:19:00,3.3,-0.4,30.04,SE,144,0.0,0.0,84,0.00,,---,0.00,VWS V14.01,2014-03-04 12:19:00,
2014-03-04 06:24:00,3.4,-0.3,30.04,SE,144,0.0,0.0,84,0.00,,---,0.00,VWS V14.01,2014-03-04 12:24:00,
2014-03-04 06:29:00,3.4,-0.3,30.04,SE,144,0.0,0.0,84,0.00,,---,0.00,VWS V14.01,2014-03-04 12:29:00,
2014-03-04 06:34:00,3.0,-1.0,30.04,SE,144,0.0,0.0,83,0.00,,---,0.00,VWS V14.01,2014-03-04 12:34:00,
2014-03-04 06:39:00,3.0,-1.0,30.04,SE,144,2.0,2.0,83,0.00,,---,0.00,VWS V14.01,2014-03-04 12:39:00,
2014-03-04 06:44:00,2.8,-0.9,30.04,SE,144,0.0,1.0,84,0.00,,---,0.00,VWS V14.01,2014-03-04 12:44:00,
2014-03-04 06:49:00,2.3,-1.7,30.04,SE,144,0.0,1.0,83,0.00,,---,0.00,VWS V14.01,2014-03-04 12:49:00,
2014-03-04 06:54:00,2.2,-1.8,30.04,SE,144,0.0,1.0,83,0.00,,---,0.00,VWS V14.01,2014-03-04 12:54:00,
2014-03-04 06:59:00,1.7,-2.3,30.04,SE,144,0.0,1.0,83,0.00,,---,0.00,VWS V14.01,2014-03-04 12:59:00,
2014-03-04 07:04:00,1.9,-2.1,30.04,SE,144,0.0,0.0,83,0.00,,---,0.00,VWS V14.01,2014-03-04 13:04:00,
2014-03-04 07:09:00,1.8,-1.9,30.05,SE,144,0.0,1.0,84,0.00,,---,0.00,VWS V14.01,2014-03-04 13:09:00,
2014-03-04 07:14:00,2.4,-1.3,30.05,SE,144,0.0,1.0,84,0.00,,---,0.00,VWS V14.01,2014-03-04 13:14:00,
2014-03-04 07:19:00,2.7,-0.8,30.06,SE,144,0.0,1.0,85,0.00,,---,0.00,VWS V14.01,2014-03-04 13:19:00,
2014-03-04 07:24:00,3.4,-0.1,30.06,SE,144,0.0,1.0,85,0.00,,---,0.00,VWS V14.01,2014-03-04 13:24:00,
2014-03-04 07:29:00,3.7,0.2,30.06,SE,144,0.0,1.0,85,0.00,,---,0.00,VWS V14.01,2014-03-04 13:29:00,
2014-03-04 07:34:00,4.0,0.5,30.05,SE,144,0.0,1.0,85,0.00,,---,0.00,VWS V14.01,2014-03-04 13:34:00,
2014-03-04 07:39:00,4.2,0.7,30.06,SE,144,0.0,1.0,85,0.00,,---,0.00,VWS V14.01,2014-03-04 13:39:00,
2014-03-04 07:44:00,4.7,1.2,30.06,SE,144,0.0,2.0,85,0.00,,---,0.00,VWS V14.01,2014-03-04 13:44:00,
2014-03-04 07:49:00,5.3,1.8,30.06,SE,144,0.0,2.0,85,0.00,,---,0.00,VWS V14.01,2014-03-04 13:49:00,
2014-03-04 07:54:00,5.6,2.1,30.06,SE,144,0.0,2.0,85,0.00,,---,0.00,VWS V14.01,2014-03-04 13:54:00,
2014-03-04 07:59:00,6.8,3.3,30.06,SE,144,0.0,2.0,85,0.00,,---,0.00,VWS V14.01,2014-03-04 13:59:00,
2014-03-04 08:04:00,8.2,4.9,30.08,SE,144,0.0,0.0,86,0.00,,---,0.00,VWS V14.01,2014-03-04 14:04:00,
2014-03-04 08:09:00,9.4,6.1,30.08,SE,144,0.0,0.0,86,0.00,,---,0.00,VWS V14.01,2014-03-04 14:09:00,
2014-03-04 08:14:00,10.6,6.7,30.06,SE,144,4.0,4.0,84,0.00,,---,0.00,VWS V14.01,2014-03-04 14:14:00,
2014-03-04 08:19:00,11.1,7.0,30.06,SE,144,0.0,3.0,83,0.00,,---,0.00,VWS V14.01,2014-03-04 14:19:00,
2014-03-04 08:24:00,11.0,6.3,30.06,SE,138,4.0,4.0,81,0.00,,---,0.00,VWS V14.01,2014-03-04 14:24:00,
2014-03-04 08:29:00,10.9,6.2,30.06,SE,137,0.0,4.0,81,0.00,,---,0.00,VWS V14.01,2014-03-04 14:29:00,
2014-03-04 08:34:00,10.8,5.9,30.07,SE,137,0.0,1.0,80,0.00,,---,0.00,VWS V14.01,2014-03-04 14:34:00,
2014-03-04 08:39:00,10.2,5.0,30.06,SE,137,0.0,2.0,79,0.00,,---,0.00,VWS V14.01,2014-03-04 14:39:00,
2014-03-04 08:44:00,10.1,4.9,30.06,SE,137,2.0,2.0,79,0.00,,---,0.00,VWS V14.01,2014-03-04 14:44:00,
2014-03-04 08:49:00,9.8,4.6,30.06,SE,137,0.0,2.0,79,0.00,,---,0.00,VWS V14.01,2014-03-04 14:49:00,
2014-03-04 08:54:00,9.3,3.8,30.06,ESE,118,2.0,3.0,78,0.00,,---,0.00,VWS V14.01,2014-03-04 14:54:00,
2014-03-04 08:59:00,9.2,4.0,30.06,ESE,117,0.0,3.0,79,0.00,,---,0.00,VWS V14.01,2014-03-04 14:59:00,
2014-03-04 09:04:00,9.9,5.0,30.05,ENE,73,2.0,3.0,80,0.00,,---,0.00,VWS V14.01,2014-03-04 15:04:00,
2014-03-04 09:09:00,10.6,5.7,30.05,ESE,115,4.0,4.0,80,0.00,,---,0.00,VWS V14.01,2014-03-04 15:09:00,
2014-03-04 09:14:00,11.4,6.2,30.05,East,80,4.0,4.0,79,0.00,,---,0.00,VWS V14.01,2014-03-04 15:14:00,
2014-03-04 09:19:00,11.4,5.9,30.05,ENE,71,2.0,4.0,78,0.00,,---,0.00,VWS V14.01,2014-03-04 15:19:00,
2014-03-04 09:24:00,11.6,6.4,30.06,East,94,4.0,5.0,79,0.00,,---,0.00,VWS V14.01,2014-03-04 15:24:00,
2014-03-04 09:29:00,12.0,6.5,30.06,NE,52,2.0,5.0,78,0.00,,---,0.00,VWS V14.01,2014-03-04 15:29:00,
2014-03-04 09:34:00,12.0,6.8,30.06,ESE,102,4.0,5.0,79,0.00,,---,0.00,VWS V14.01,2014-03-04 15:34:00,
2014-03-04 09:39:00,12.3,7.0,30.06,East,85,8.0,8.0,79,0.00,,---,0.00,VWS V14.01,2014-03-04 15:39:00,
2014-03-04 09:44:00,12.6,7.1,30.07,ESE,104,0.0,5.0,78,0.00,,---,0.00,VWS V14.01,2014-03-04 15:44:00,
2014-03-04 09:49:00,12.8,7.2,30.06,ESE,111,2.0,5.0,78,0.00,,---,0.00,VWS V14.01,2014-03-04 15:49:00,
2014-03-04 09:54:00,13.2,7.6,30.06,ESE,118,2.0,5.0,78,0.00,,---,0.00,VWS V14.01,2014-03-04 15:54:00,
2014-03-04 09:59:00,13.4,7.8,30.06,ESE,102,4.0,5.0,78,0.00,,---,0.00,VWS V14.01,2014-03-04 15:59:00,
2014-03-04 10:04:00,13.7,7.8,30.07,East,95,2.0,4.0,77,0.00,,---,0.00,VWS V14.01,2014-03-04 16:04:00,
2014-03-04 10:09:00,14.1,8.2,30.07,ENE,73,4.0,4.0,77,0.00,,---,0.00,VWS V14.01,2014-03-04 16:09:00,
2014-03-04 10:14:00,14.5,8.6,30.07,ESE,109,2.0,5.0,77,0.00,,---,0.00,VWS V14.01,2014-03-04 16:14:00,
2014-03-04 10:19:00,14.5,8.3,30.07,ESE,110,8.0,8.0,76,0.00,,---,0.00,VWS V14.01,2014-03-04 16:19:00,
2014-03-04 10:24:00,14.6,8.7,30.07,SE,145,2.0,5.0,77,0.00,,---,0.00,VWS V14.01,2014-03-04 16:24:00,
2014-03-04 10:29:00,14.7,8.8,30.07,ESE,113,2.0,5.0,77,0.00,,---,0.00,VWS V14.01,2014-03-04 16:29:00,
2014-03-04 10:34:00,14.6,8.7,30.07,ESE,102,12.0,12.0,77,0.00,,---,0.00,VWS V14.01,2014-03-04 16:34:00,
2014-03-04 10:39:00,14.8,8.6,30.06,ESE,103,12.0,12.0,76,0.00,,---,0.00,VWS V14.01,2014-03-04 16:39:00,
2014-03-04 10:44:00,14.9,8.7,30.07,ESE,121,4.0,6.0,76,0.00,,---,0.00,VWS V14.01,2014-03-04 16:44:00,
2014-03-04 10:49:00,15.1,9.2,30.06,NE,38,6.0,6.0,77,0.00,,---,0.00,VWS V14.01,2014-03-04 16:49:00,
2014-03-04 10:54:00,15.4,9.5,30.07,NNE,13,4.0,8.0,77,0.02,,---,0.02,VWS V14.01,2014-03-04 16:54:00,
2014-03-04 10:59:00,14.9,9.0,30.07,NNW,331,4.0,8.0,77,0.02,,---,0.02,VWS V14.01,2014-03-04 16:59:00,
2014-03-04 11:04:00,15.3,9.7,30.07,NE,43,8.0,8.0,78,0.02,,---,0.02,VWS V14.01,2014-03-04 17:04:00,
2014-03-04 11:09:00,15.1,9.5,30.07,NNE,22,4.0,4.0,78,0.02,,---,0.02,VWS V14.01,2014-03-04 17:09:00,
2014-03-04 11:14:00,15.2,9.6,30.07,NNE,13,6.0,7.0,78,0.03,,---,0.03,VWS V14.01,2014-03-04 17:14:00,
2014-03-04 11:19:00,15.4,9.5,30.07,ENE,60,4.0,7.0,77,0.03,,---,0.03,VWS V14.01,2014-03-04 17:19:00,
2014-03-04 11:24:00,15.5,9.6,30.06,NNE,33,6.0,7.0,77,0.03,,---,0.03,VWS V14.01,2014-03-04 17:24:00,
2014-03-04 11:29:00,15.4,9.5,30.06,NE,45,2.0,8.0,77,0.03,,---,0.03,VWS V14.01,2014-03-04 17:29:00,
2014-03-04 11:34:00,15.7,9.8,30.05,North,11,8.0,8.0,77,0.04,,---,0.04,VWS V14.01,2014-03-04 17:34:00,
2014-03-04 11:39:00,15.7,9.8,30.05,ENE,60,8.0,8.0,77,0.04,,---,0.04,VWS V14.01,2014-03-04 17:39:00,
2014-03-04 11:44:00,15.6,9.7,30.05,NNE,22,6.0,8.0,77,0.04,,---,0.04,VWS V14.01,2014-03-04 17:44:00,
2014-03-04 11:49:00,15.9,10.3,30.05,NE,42,6.0,8.0,78,0.05,,---,0.05,VWS V14.01,2014-03-04 17:49:00,
2014-03-04 11:54:00,15.7,9.8,30.04,ENE,59,8.0,8.0,77,0.05,,---,0.05,VWS V14.01,2014-03-04 17:54:00,
2014-03-04 11:59:00,15.5,9.6,30.05,NE,39,14.0,14.0,77,0.05,,---,0.05,VWS V14.01,2014-03-04 17:59:00,
2014-03-04 12:04:00,15.2,9.6,30.04,NNE,26,4.0,12.0,78,0.03,,---,0.05,VWS V14.01,2014-03-04 18:04:00,
2014-03-04 12:09:00,15.1,9.5,30.05,NE,45,10.0,12.0,78,0.03,,---,0.05,VWS V14.01,2014-03-04 18:09:00,
2014-03-04 12:14:00,15.1,9.5,30.04,NNE,23,6.0,12.0,78,0.03,,---,0.05,VWS V14.01,2014-03-04 18:14:00,
2014-03-04 12:19:00,15.8,10.5,30.04,NE,51,8.0,12.0,79,0.03,,---,0.05,VWS V14.01,2014-03-04 18:19:00,
2014-03-04 12:24:00,15.8,10.2,30.04,East,90,6.0,12.0,78,0.03,,---,0.05,VWS V14.01,2014-03-04 18:24:00,
2014-03-04 12:29:00,16.0,10.4,30.03,NE,50,6.0,12.0,78,0.03,,---,0.05,VWS V14.01,2014-03-04 18:29:00,
2014-03-04 12:34:00,15.6,10.0,30.03,East,81,8.0,8.0,78,0.02,,---,0.05,VWS V14.01,2014-03-04 18:34:00,
2014-03-04 12:39:00,16.0,10.6,30.03,East,81,14.0,14.0,79,0.02,,---,0.05,VWS V14.01,2014-03-04 18:39:00,
2014-03-04 12:44:00,16.1,10.8,30.04,NE,55,6.0,9.0,79,0.02,,---,0.05,VWS V14.01,2014-03-04 18:44:00,
2014-03-04 12:49:00,16.1,10.8,30.04,NE,42,6.0,9.0,79,0.02,,---,0.05,VWS V14.01,2014-03-04 18:49:00,
2014-03-04 12:54:00,16.2,10.8,30.04,ENE,61,4.0,9.0,79,0.02,,---,0.05,VWS V14.01,2014-03-04 18:54:00,
2014-03-04 12:59:00,17.0,11.9,30.03,ENE,59,4.0,9.0,80,0.02,,---,0.05,VWS V14.01,2014-03-04 18:59:00,
2014-03-04 13:04:00,16.8,11.4,30.03,ENE,67,8.0,8.0,79,0.00,,---,0.05,VWS V14.01,2014-03-04 19:04:00,
2014-03-04 13:09:00,16.6,11.2,30.03,ENE,76,6.0,7.0,79,0.00,,---,0.05,VWS V14.01,2014-03-04 19:09:00,
2014-03-04 13:14:00,16.9,11.8,30.03,East,79,6.0,7.0,80,0.00,,---,0.05,VWS V14.01,2014-03-04 19:14:00,
2014-03-04 13:19:00,16.9,11.5,30.04,East,87,6.0,7.0,79,0.00,,---,0.05,VWS V14.01,2014-03-04 19:19:00,
2014-03-04 13:24:00,16.8,11.4,30.03,ENE,63,12.0,12.0,79,0.00,,---,0.05,VWS V14.01,2014-03-04 19:24:00,
2014-03-04 13:29:00,16.9,11.5,30.03,ENE,70,8.0,8.0,79,0.00,,---,0.05,VWS V14.01,2014-03-04 19:29:00,
2014-03-04 13:34:00,17.1,11.7,30.03,ENE,75,10.0,10.0,79,0.00,,---,0.05,VWS V14.01,2014-03-04 19:34:00,
2014-03-04 13:39:00,17.2,12.1,30.03,East,80,8.0,9.0,80,0.00,,---,0.05,VWS V14.01,2014-03-04 19:39:00,
2014-03-04 13:44:00,17.4,12.3,30.03,ENE,72,16.0,16.0,80,0.00,,---,0.05,VWS V14.01,2014-03-04 19:44:00,
2014-03-04 13:49:00,17.8,12.7,30.02,East,79,4.0,9.0,80,0.00,,---,0.05,VWS V14.01,2014-03-04 19:49:00,
2014-03-04 13:54:00,18.0,12.6,30.02,East,82,6.0,9.0,79,0.00,,---,0.05,VWS V14.01,2014-03-04 19:54:00,
2014-03-04 13:59:00,18.2,12.8,30.02,East,89,6.0,9.0,79,0.00,,---,0.05,VWS V14.01,2014-03-04 19:59:00,
2014-03-04 14:04:00,18.2,12.8,30.03,ENE,57,4.0,7.0,79,0.00,,---,0.05,VWS V14.01,2014-03-04 20:04:00,
2014-03-04 14:09:00,18.3,13.2,30.03,ENE,62,6.0,7.0,80,0.00,,---,0.05,VWS V14.01,2014-03-04 20:09:00,
2014-03-04 14:14:00,18.3,12.9,30.03,East,80,6.0,7.0,79,0.00,,---,0.05,VWS V14.01,2014-03-04 20:14:00,
2014-03-04 14:19:00,18.4,13.0,30.03,NNE,32,4.0,8.0,79,0.00,,---,0.05,VWS V14.01,2014-03-04 20:19:00,
2014-03-04 14:24:00,18.5,13.1,30.03,East,83,8.0,8.0,79,0.00,,---,0.05,VWS V14.01,2014-03-04 20:24:00,
2014-03-04 14:29:00,18.3,12.6,30.03,ENE,71,8.0,8.0,78,0.00,,---,0.05,VWS V14.01,2014-03-04 20:29:00,
2014-03-04 14:34:00,18.1,12.4,30.03,East,80,10.0,10.0,78,0.00,,---,0.05,VWS V14.01,2014-03-04 20:34:00,
2014-03-04 14:39:00,18.5,13.1,30.04,East,79,6.0,7.0,79,0.00,,---,0.05,VWS V14.01,2014-03-04 20:39:00,
2014-03-04 14:44:00,18.4,12.7,30.03,ENE,58,12.0,12.0,78,0.00,,---,0.05,VWS V14.01,2014-03-04 20:44:00,
2014-03-04 14:49:00,18.4,13.0,30.04,SE,127,8.0,11.0,79,0.00,,---,0.05,VWS V14.01,2014-03-04 20:49:00,
2014-03-04 14:54:00,18.4,13.0,30.05,ENE,67,12.0,12.0,79,0.00,,---,0.05,VWS V14.01,2014-03-04 20:54:00,
2014-03-04 14:59:00,18.3,12.9,30.05,ENE,58,4.0,11.0,79,0.01,,---,0.06,VWS V14.01,2014-03-04 20:59:00,
2014-03-04 15:04:00,18.4,13.3,30.05,ENE,67,6.0,7.0,80,0.01,,---,0.06,VWS V14.01,2014-03-04 21:04:00,
2014-03-04 15:09:00,18.6,13.5,30.06,East,100,6.0,7.0,80,0.01,,---,0.06,VWS V14.01,2014-03-04 21:09:00,
2014-03-04 15:14:00,18.9,13.5,30.05,NE,46,8.0,8.0,79,0.01,,---,0.06,VWS V14.01,2014-03-04 21:14:00,
2014-03-04 15:19:00,19.2,13.8,30.05,NE,42,8.0,9.0,79,0.01,,---,0.06,VWS V14.01,2014-03-04 21:19:00,
2014-03-04 15:24:00,18.9,13.2,30.05,ENE,77,4.0,9.0,78,0.01,,---,0.06,VWS V14.01,2014-03-04 21:24:00,
2014-03-04 15:29:00,18.8,12.8,30.05,ENE,71,10.0,10.0,77,0.01,,---,0.06,VWS V14.01,2014-03-04 21:29:00,
2014-03-04 15:34:00,18.7,12.4,30.05,ENE,74,8.0,8.0,76,0.01,,---,0.06,VWS V14.01,2014-03-04 21:34:00,
2014-03-04 15:39:00,18.4,12.4,30.04,NE,53,8.0,8.0,77,0.01,,---,0.06,VWS V14.01,2014-03-04 21:39:00,
2014-03-04 15:44:00,18.4,12.4,30.05,ENE,66,12.0,12.0,77,0.01,,---,0.06,VWS V14.01,2014-03-04 21:44:00,
2014-03-04 15:49:00,18.0,12.0,30.04,ENE,65,4.0,10.0,77,0.01,,---,0.06,VWS V14.01,2014-03-04 21:49:00,
2014-03-04 15:54:00,18.0,12.3,30.04,East,87,6.0,11.0,78,0.01,,---,0.06,VWS V14.01,2014-03-04 21:54:00,
2014-03-04 15:59:00,18.0,12.3,30.04,ENE,67,12.0,12.0,78,0.01,,---,0.06,VWS V14.01,2014-03-04 21:59:00,
2014-03-04 16:04:00,18.0,12.6,30.04,ENE,63,12.0,12.0,79,0.00,,---,0.06,VWS V14.01,2014-03-04 22:04:00,
2014-03-04 16:09:00,18.0,12.6,30.05,ENE,65,4.0,7.0,79,0.00,,---,0.06,VWS V14.01,2014-03-04 22:09:00,
2014-03-04 16:14:00,18.1,13.0,30.05,ENE,68,6.0,7.0,80,0.00,,---,0.06,VWS V14.01,2014-03-04 22:14:00,
2014-03-04 16:19:00,18.1,13.0,30.05,East,87,6.0,7.0,80,0.00,,---,0.06,VWS V14.01,2014-03-04 22:19:00,
2014-03-04 16:24:00,18.1,13.0,30.05,NE,53,6.0,8.0,80,0.00,,---,0.06,VWS V14.01,2014-03-04 22:24:00,
2014-03-04 16:29:00,18.3,13.5,30.05,ENE,75,10.0,10.0,81,0.00,,---,0.06,VWS V14.01,2014-03-04 22:29:00,
2014-03-04 16:34:00,18.3,13.5,30.05,ENE,62,6.0,8.0,81,0.00,,---,0.06,VWS V14.01,2014-03-04 22:34:00,
2014-03-04 16:39:00,18.4,13.8,30.05,East,89,4.0,8.0,82,0.00,,---,0.06,VWS V14.01,2014-03-04 22:39:00,
2014-03-04 16:44:00,18.3,13.5,30.04,ENE,62,10.0,10.0,81,0.00,,---,0.06,VWS V14.01,2014-03-04 22:44:00,
2014-03-04 16:49:00,18.4,13.8,30.04,NE,51,4.0,8.0,82,0.00,,---,0.06,VWS V14.01,2014-03-04 22:49:00,
2014-03-04 16:54:00,18.4,13.8,30.03,ENE,70,2.0,8.0,82,0.00,,---,0.06,VWS V14.01,2014-03-04 22:54:00,
2014-03-04 16:59:00,18.3,13.5,30.04,NE,43,4.0,8.0,81,0.00,,---,0.06,VWS V14.01,2014-03-04 22:59:00,
2014-03-04 17:04:00,18.2,13.6,30.05,ENE,60,8.0,8.0,82,0.00,,---,0.06,VWS V14.01,2014-03-04 23:04:00,
2014-03-04 17:09:00,18.4,13.8,30.05,East,86,6.0,6.0,82,0.00,,---,0.06,VWS V14.01,2014-03-04 23:09:00,
2014-03-04 17:14:00,18.3,13.5,30.06,NE,53,6.0,6.0,81,0.00,,---,0.06,VWS V14.01,2014-03-04 23:14:00,
2014-03-04 17:19:00,18.2,13.6,30.06,East,87,2.0,8.0,82,0.00,,---,0.06,VWS V14.01,2014-03-04 23:19:00,
2014-03-04 17:24:00,18.0,13.2,30.06,ENE,69,8.0,8.0,81,0.00,,---,0.06,VWS V14.01,2014-03-04 23:24:00,
2014-03-04 17:29:00,18.0,13.4,30.07,East,82,4.0,8.0,82,0.00,,---,0.06,VWS V14.01,2014-03-04 23:29:00,
2014-03-04 17:34:00,17.8,13.2,30.07,NNE,28,6.0,6.0,82,0.00,,---,0.06,VWS V14.01,2014-03-04 23:34:00,
2014-03-04 17:39:00,17.7,13.1,30.07,East,86,6.0,6.0,82,0.00,,---,0.06,VWS V14.01,2014-03-04 23:39:00,
2014-03-04 17:44:00,17.6,13.3,30.07,NE,34,4.0,6.0,83,0.00,,---,0.06,VWS V14.01,2014-03-04 23:44:00,
2014-03-04 17:49:00,17.5,13.2,30.07,ENE,60,4.0,8.0,83,0.00,,---,0.06,VWS V14.01,2014-03-04 23:49:00,
2014-03-04 17:54:00,17.4,13.1,30.07,NNE,22,10.0,10.0,83,0.00,,---,0.06,VWS V14.01,2014-03-04 23:54:00,
2014-03-04 17:59:00,17.6,13.3,30.07,ENE,67,2.0,8.0,83,0.00,,---,0.06,VWS V14.01,2014-03-04 23:59:00,
2014-03-04 18:04:00,17.6,13.3,30.07,ENE,65,8.0,8.0,83,0.00,,---,0.06,VWS V14.01,2014-03-05 00:04:00,
2014-03-04 18:09:00,17.5,13.2,30.07,NE,38,6.0,6.0,83,0.00,,---,0.06,VWS V14.01,2014-03-05 00:09:00,
2014-03-04 18:14:00,17.3,13.3,30.07,NE,44,6.0,7.0,84,0.00,,---,0.06,VWS V14.01,2014-03-05 00:14:00,
2014-03-04 18:19:00,17.3,13.3,30.07,NE,39,12.0,12.0,84,0.00,,---,0.06,VWS V14.01,2014-03-05 00:19:00,
2014-03-04 18:24:00,17.0,13.0,30.07,ENE,61,6.0,8.0,84,0.00,,---,0.06,VWS V14.01,2014-03-05 00:24:00,
2014-03-04 18:29:00,16.8,12.8,30.07,North,4,12.0,12.0,84,0.00,,---,0.06,VWS V14.01,2014-03-05 00:29:00,
2014-03-04 18:34:00,16.7,13.0,30.07,ENE,65,10.0,10.0,85,0.00,,---,0.06,VWS V14.01,2014-03-05 00:34:00,
2014-03-04 18:39:00,16.7,13.0,30.06,NE,44,6.0,9.0,85,0.00,,---,0.06,VWS V14.01,2014-03-05 00:39:00,
2014-03-04 18:44:00,16.6,12.9,30.06,ENE,72,6.0,9.0,85,0.00,,---,0.06,VWS V14.01,2014-03-05 00:44:00,
2014-03-04 18:48:00,16.5,12.8,30.06,NE,48,10.0,10.0,85,0.00,,---,0.06,VWS V14.01,2014-03-05 00:48:00,
2014-03-04 18:53:00,16.3,12.9,30.07,ENE,64,4.0,9.0,86,0.00,,---,0.06,VWS V14.01,2014-03-05 00:53:00,
2014-03-04 18:58:00,16.3,12.9,30.07,ENE,60,10.0,10.0,86,0.00,,---,0.06,VWS V14.01,2014-03-05 00:58:00,
2014-03-04 19:03:00,16.4,12.9,30.07,NE,53,14.0,14.0,86,0.00,,---,0.06,VWS V14.01,2014-03-05 01:03:00,
2014-03-04 19:08:00,16.3,13.1,30.07,ENE,59,8.0,10.0,87,0.00,,---,0.06,VWS V14.01,2014-03-05 01:08:00,
2014-03-04 19:13:00,16.4,13.2,30.07,NE,50,10.0,10.0,87,0.00,,---,0.06,VWS V14.01,2014-03-05 01:13:00,
2014-03-04 19:18:00,16.3,13.1,30.07,NE,50,8.0,10.0,87,0.00,,---,0.06,VWS V14.01,2014-03-05 01:18:00,
2014-03-04 19:23:00,16.2,13.0,30.07,ENE,64,8.0,10.0,87,0.00,,---,0.06,VWS V14.01,2014-03-05 01:23:00,
2014-03-04 19:28:00,16.3,13.1,30.07,NE,38,14.0,14.0,87,0.00,,---,0.06,VWS V14.01,2014-03-05 01:28:00,
2014-03-04 19:33:00,16.2,13.0,30.08,ENE,62,10.0,10.0,87,0.00,,---,0.06,VWS V14.01,2014-03-05 01:33:00,
2014-03-04 19:38:00,16.2,13.0,30.09,East,80,16.0,16.0,87,0.00,,---,0.06,VWS V14.01,2014-03-05 01:38:00,
2014-03-04 19:43:00,16.2,13.0,30.09,NNW,346,6.0,10.0,87,0.00,,---,0.06,VWS V14.01,2014-03-05 01:43:00,
2014-03-04 19:48:00,16.1,12.9,30.10,ENE,78,8.0,10.0,87,0.00,,---,0.06,VWS V14.01,2014-03-05 01:48:00,
2014-03-04 19:53:00,16.2,13.0,30.09,NE,56,6.0,10.0,87,0.00,,---,0.06,VWS V14.01,2014-03-05 01:53:00,
2014-03-04 19:58:00,16.2,13.3,30.09,NNE,21,12.0,12.0,88,0.00,,---,0.06,VWS V14.01,2014-03-05 01:58:00,
2014-03-04 20:03:00,16.2,13.3,30.09,ENE,72,8.0,8.0,88,0.00,,---,0.06,VWS V14.01,2014-03-05 02:03:00,
2014-03-04 20:08:00,16.3,13.4,30.10,ENE,67,6.0,8.0,88,0.00,,---,0.06,VWS V14.01,2014-03-05 02:08:00,
2014-03-04 20:13:00,16.0,13.1,30.11,ENE,65,8.0,8.0,88,0.00,,---,0.06,VWS V14.01,2014-03-05 02:13:00,
2014-03-04 20:18:00,16.0,13.1,30.10,ENE,63,6.0,8.0,88,0.00,,---,0.06,VWS V14.01,2014-03-05 02:18:00,
2014-03-04 20:23:00,16.2,13.3,30.11,ENE,67,8.0,8.0,88,0.00,,---,0.06,VWS V14.01,2014-03-05 02:23:00,
2014-03-04 20:28:00,16.0,13.1,30.11,East,86,4.0,8.0,88,0.00,,---,0.06,VWS V14.01,2014-03-05 02:28:00,
2014-03-04 20:33:00,15.9,13.0,30.11,ENE,59,8.0,8.0,88,0.00,,---,0.06,VWS V14.01,2014-03-05 02:33:00,
2014-03-04 20:38:00,16.1,13.2,30.12,ENE,62,10.0,10.0,88,0.00,,---,0.06,VWS V14.01,2014-03-05 02:38:00,
2014-03-04 20:43:00,15.8,12.9,30.12,ENE,76,6.0,8.0,88,0.00,,---,0.06,VWS V14.01,2014-03-05 02:43:00,
2014-03-04 20:48:00,15.9,13.0,30.12,ENE,69,4.0,8.0,88,0.00,,---,0.06,VWS V14.01,2014-03-05 02:48:00,
2014-03-04 20:53:00,15.9,13.0,30.12,ENE,74,6.0,8.0,88,0.00,,---,0.06,VWS V14.01,2014-03-05 02:53:00,
2014-03-04 20:58:00,16.0,13.1,30.13,ENE,73,4.0,8.0,88,0.00,,---,0.06,VWS V14.01,2014-03-05 02:58:00,
2014-03-04 21:03:00,15.8,12.9,30.13,East,98,6.0,6.0,88,0.00,,---,0.06,VWS V14.01,2014-03-05 03:03:00,
2014-03-04 21:08:00,16.0,13.3,30.13,ENE,61,6.0,6.0,89,0.00,,---,0.06,VWS V14.01,2014-03-05 03:08:00,
2014-03-04 21:13:00,15.8,12.9,30.13,ENE,60,8.0,9.0,88,0.00,,---,0.06,VWS V14.01,2014-03-05 03:13:00,
2014-03-04 21:18:00,15.8,12.9,30.13,East,84,6.0,9.0,88,0.00,,---,0.06,VWS V14.01,2014-03-05 03:18:00,
2014-03-04 21:23:00,15.8,12.9,30.13,NE,49,4.0,9.0,88,0.00,,---,0.06,VWS V14.01,2014-03-05 03:23:00,
2014-03-04 21:28:00,15.9,13.0,30.14,NE,40,8.0,9.0,88,0.00,,---,0.06,VWS V14.01,2014-03-05 03:28:00,
2014-03-04 21:33:00,15.9,13.0,30.14,North,1,8.0,8.0,88,0.00,,---,0.06,VWS V14.01,2014-03-05 03:33:00,
2014-03-04 21:38:00,15.8,12.9,30.14,NE,49,4.0,5.0,88,0.00,,---,0.06,VWS V14.01,2014-03-05 03:38:00,
2014-03-04 21:43:00,15.8,12.9,30.14,NNE,28,4.0,8.0,88,0.00,,---,0.06,VWS V14.01,2014-03-05 03:43:00,
2014-03-04 21:48:00,15.8,12.9,30.15,NNE,28,4.0,8.0,88,0.00,,---,0.06,VWS V14.01,2014-03-05 03:48:00,
2014-03-04 21:53:00,15.6,12.7,30.15,NNE,24,6.0,8.0,88,0.00,,---,0.06,VWS V14.01,2014-03-05 03:53:00,
2014-03-04 21:58:00,15.7,13.0,30.15,NE,46,6.0,9.0,89,0.00,,---,0.06,VWS V14.01,2014-03-05 03:58:00,
2014-03-04 22:03:00,15.6,12.9,30.15,ENE,59,4.0,7.0,89,0.00,,---,0.06,VWS V14.01,2014-03-05 04:03:00,
2014-03-04 22:08:00,15.7,12.8,30.16,ENE,74,8.0,8.0,88,0.00,,---,0.06,VWS V14.01,2014-03-05 04:08:00,
2014-03-04 22:13:00,15.7,13.0,30.16,NNE,23,2.0,7.0,89,0.00,,---,0.06,VWS V14.01,2014-03-05 04:13:00,
2014-03-04 22:18:00,15.8,13.1,30.16,NW,309,2.0,7.0,89,0.00,,---,0.06,VWS V14.01,2014-03-05 04:18:00,
2014-03-04 22:23:00,15.6,12.7,30.16,NE,54,6.0,7.0,88,0.00,,---,0.06,VWS V14.01,2014-03-05 04:23:00,
2014-03-04 22:28:00,15.8,13.1,30.17,NE,41,4.0,7.0,89,0.00,,---,0.06,VWS V14.01,2014-03-05 04:28:00,
2014-03-04 22:33:00,15.8,13.1,30.17,North,355,8.0,8.0,89,0.00,,---,0.06,VWS V14.01,2014-03-05 04:33:00,
2014-03-04 22:38:00,15.8,13.1,30.17,NNE,32,6.0,8.0,89,0.00,,---,0.06,VWS V14.01,2014-03-05 04:38:00,
2014-03-04 22:43:00,15.8,13.1,30.17,NNE,29,6.0,8.0,89,0.00,,---,0.06,VWS V14.01,2014-03-05 04:43:00,
2014-03-04 22:48:00,15.9,13.5,30.17,North,8,10.0,10.0,90,0.00,,---,0.06,VWS V14.01,2014-03-05 04:48:00,
2014-03-04 22:53:00,15.8,13.4,30.17,North,356,10.0,12.0,90,0.00,,---,0.06,VWS V14.01,2014-03-05 04:53:00,
2014-03-04 22:58:00,15.8,13.4,30.17,NNE,20,6.0,12.0,90,0.00,,---,0.06,VWS V14.01,2014-03-05 04:58:00,
2014-03-04 23:01:00,15.8,13.4,30.17,North,8,6.0,6.0,90,0.00,,---,0.06,VWS V14.01,2014-03-05 05:01:00,
2014-03-04 23:06:00,15.7,13.3,30.17,NNE,26,4.0,9.0,90,0.00,,---,0.06,VWS V14.01,2014-03-05 05:06:00,
2014-03-04 23:11:00,15.6,13.4,30.16,NE,48,8.0,9.0,91,0.00,,---,0.06,VWS V14.01,2014-03-05 05:11:00,
2014-03-04 23:16:00,15.6,13.7,30.16,ENE,77,6.0,9.0,92,0.00,,---,0.06,VWS V14.01,2014-03-05 05:16:00,
2014-03-04 23:21:00,15.5,13.6,30.16,NNE,23,6.0,9.0,92,0.00,,---,0.06,VWS V14.01,2014-03-05 05:21:00,
2014-03-04 23:26:00,15.4,13.5,30.17,NNE,14,8.0,9.0,92,0.00,,---,0.06,VWS V14.01,2014-03-05 05:26:00,
2014-03-04 23:31:00,15.5,13.6,30.17,North,11,6.0,6.0,92,0.00,,---,0.06,VWS V14.01,2014-03-05 05:31:00,
2014-03-04 23:36:00,15.3,13.4,30.17,NE,52,8.0,9.0,92,0.00,,---,0.06,VWS V14.01,2014-03-05 05:36:00,
2014-03-04 23:41:00,15.4,13.5,30.17,NNE,23,4.0,9.0,92,0.00,,---,0.06,VWS V14.01,2014-03-05 05:41:00,
2014-03-04 23:46:00,15.2,13.3,30.17,ENE,65,6.0,9.0,92,0.00,,---,0.06,VWS V14.01,2014-03-05 05:46:00,
2014-03-04 23:51:00,15.2,13.3,30.17,NNE,28,4.0,9.0,92,0.00,,---,0.06,VWS V14.01,2014-03-05 05:51:00,
2014-03-04 23:56:00,15.3,13.4,30.17,NE,52,6.0,9.0,92,0.00,,---,0.06,VWS V14.01,2014-03-05 05:56:00,